CW3224 Weather Reports


Display with metric or nautical units.
time (UTC)temp
F
wind
direction
speed
MPH
gust
MPH
rain 1hr
in
rain 24hr
in
rain mn
in
humidity
%
barometer
mb
20260508004709 51 301 0.0 0.0 0.00 0.05 0.02 53 1007.1
20260508003708 51 301 0.0 0.0 0.00 0.05 0.02 52 1006.9
20260508002658 52 301 0.0 0.0 0.00 0.05 0.02 52 1006.9
20260508001700 53 264 0.0 0.0 0.00 0.05 0.02 50 1006.9
20260508000658 53 301 0.0 0.0 0.00 0.05 0.02 49 1006.7
20260507235658 54 301 0.0 1.0 0.00 0.05 0.02 47 1006.6
20260507234658 55 301 0.0 1.0 0.00 0.05 0.02 46 1006.6
20260507233657 55 301 1.0 3.0 0.00 0.05 0.02 45 1006.5
20260507232657 56 335 1.0 4.0 0.00 0.05 0.02 45 1006.3
20260507231657 56 301 2.0 5.0 0.00 0.05 0.02 43 1006.3
20260507230658 56 301 2.0 5.0 0.00 0.05 0.02 43 1006.1
20260507225651 57 301 2.0 4.0 0.00 0.06 0.02 42 1006.0
20260507224649 57 301 2.0 4.0 0.00 0.08 0.02 41 1006.0
20260507223647 57 288 2.0 5.0 0.00 0.09 0.02 43 1005.9
20260507222647 58 301 2.0 8.0 0.00 0.10 0.02 41 1005.8
20260507222121 58 333 2.0 5.0 0.00 0.11 0.02 41 1005.8
20260507220646 58 58 2.0 6.0 0.00 0.12 0.02 43 1005.6
20260507220118 58 221 2.0 5.0 0.00 0.15 0.02 41 1005.6
20260507214647 59 89 0.0 4.0 0.00 0.16 0.02 41 1005.6
20260507214125 59 85 2.0 5.0 0.00 0.17 0.02 41 1005.4
20260507212648 59 301 3.0 7.0 0.00 0.18 0.02 41 1005.5
20260507211644 60 301 3.0 8.0 0.00 0.18 0.02 40 1005.5
20260507210646 60 168 2.0 7.0 0.00 0.18 0.02 40 1005.5
20260507210124 60 301 2.0 5.0 0.00 0.18 0.02 41 1005.5
20260507205131 60 301 2.0 6.0 0.00 0.18 0.02 40 1005.5
20260507203646 61 301 2.0 11.0 0.00 0.18 0.02 40 1005.4
20260507202644 62 301 3.0 7.0 0.00 0.18 0.02 40 1005.2
20260507201645 62 260 3.0 6.0 0.00 0.19 0.02 38 1005.2
20260507200645 63 55 2.0 7.0 0.00 0.20 0.02 40 1005.3
20260507195644 63 349 3.0 7.0 0.00 0.21 0.02 40 1005.4
20260507194645 63 51 3.0 8.0 0.00 0.21 0.02 41 1005.4
20260507194126 63 246 3.0 6.0 0.00 0.21 0.02 42 1005.5
20260507192641 64 296 3.0 9.0 0.00 0.21 0.02 37 1005.6
20260507191640 64 76 2.0 9.0 0.00 0.21 0.02 40 1005.6
20260507190640 64 190 2.0 7.0 0.00 0.22 0.02 37 1005.8
20260507185641 64 301 3.0 9.0 0.00 0.22 0.02 38 1006.0
20260507184641 65 277 3.0 8.0 0.00 0.23 0.02 39 1006.0
20260507183638 65 32 4.0 11.0 0.00 0.23 0.02 38 1006.1
20260507183121 66 214 3.0 6.0 0.00 0.24 0.02 37 1006.1
20260507181638 66 19 3.0 8.0 0.00 0.24 0.02 39 1006.1
20260507180639 65 44 2.0 7.0 0.00 0.24 0.02 37 1006.4
20260507175636 65 268 3.0 6.0 0.00 0.24 0.02 40 1006.4
20260507174637 65 4 3.0 7.0 0.00 0.24 0.02 39 1006.4
20260507173636 65 277 2.0 7.0 0.00 0.24 0.02 40 1006.1
20260507172634 65 89 2.0 9.0 0.00 0.24 0.02 46 1006.2
20260507171635 64 27 3.0 8.0 0.00 0.24 0.02 39 1006.2
20260507170635 64 289 3.0 7.0 0.00 0.24 0.02 40 1006.5
20260507165634 64 258 3.0 10.0 0.00 0.24 0.02 46 1006.6
20260507164634 64 22 3.0 9.0 0.00 0.24 0.02 44 1006.6
20260507164114 64 316 3.0 8.0 0.00 0.24 0.02 50 1007.0
20260507162635 63 273 3.0 10.0 0.00 0.24 0.02 48 1007.1
20260507161635 63 310 3.0 7.0 0.00 0.24 0.02 52 1007.1
20260507160635 63 285 3.0 8.0 0.00 0.24 0.02 51 1007.2
20260507155625 62 19 3.0 9.0 0.00 0.24 0.02 54 1007.1
20260507155532 61 285 3.0 8.0 0.00 0.24 0.02 56 1007.1
20260507153624 60 212 2.0 6.0 0.00 0.24 0.02 60 1007.4
20260507152625 60 301 2.0 6.0 0.00 0.24 0.02 58 1007.4
20260507152110 59 276 2.0 7.0 0.00 0.24 0.02 63 1007.4
20260507151106 58 148 2.0 5.0 0.00 0.24 0.02 62 1007.6
20260507145616 58 268 1.0 4.0 0.00 0.24 0.02 63 1007.6
20260507145058 58 279 3.0 7.0 0.00 0.24 0.02 63 1007.6
20260507143615 58 246 3.0 6.0 0.00 0.24 0.02 69 1007.6
20260507142614 57 208 2.0 7.0 0.00 0.24 0.02 69 1007.6
20260507141613 56 266 3.0 7.0 0.00 0.24 0.02 68 1007.6
20260507140614 56 301 1.0 4.0 0.00 0.24 0.02 74 1007.6
20260507135614 55 301 1.0 5.0 0.00 0.24 0.02 72 1007.6
20260507134612 55 73 2.0 5.0 0.00 0.24 0.02 72 1007.6
20260507134100 54 154 1.0 6.0 0.00 0.24 0.02 75 1007.5
20260507132610 54 193 2.0 5.0 0.00 0.24 0.02 77 1007.6
20260507132044 53 56 2.0 5.0 0.00 0.24 0.02 78 1007.6
20260507130609 52 73 2.0 5.0 0.00 0.24 0.02 80 1007.8
20260507125608 51 296 1.0 5.0 0.00 0.24 0.02 82 1007.8
20260507124607 51 301 2.0 5.0 0.00 0.24 0.02 84 1007.8
20260507123559 50 44 2.0 7.0 0.00 0.24 0.02 84 1008.0
20260507122601 49 2 3.0 6.0 0.00 0.24 0.02 85 1008.1
20260507121558 49 34 1.0 5.0 0.00 0.24 0.02 87 1008.1
20260507120558 48 98 1.0 3.0 0.00 0.24 0.02 89 1008.1
20260507115559 48 221 1.0 4.0 0.00 0.24 0.02 90 1008.0
20260507114548 47 301 0.0 0.0 0.00 0.24 0.02 91 1008.0
20260507113549 47 301 0.0 0.0 0.00 0.24 0.02 91 1008.0
20260507112546 47 301 0.0 0.0 0.00 0.24 0.02 91 1007.8
20260507111547 47 133 0.0 0.0 0.00 0.24 0.02 91 1007.8
20260507110532 46 301 0.0 0.0 0.00 0.24 0.02 91 1007.7
20260507105532 46 133 0.0 0.0 0.00 0.24 0.02 91 1007.8
20260507104533 46 133 0.0 0.0 0.00 0.24 0.02 90 1007.8
20260507103530 46 133 0.0 0.0 0.00 0.24 0.02 90 1007.1
20260507102529 46 133 0.0 0.0 0.00 0.24 0.02 90 1007.2
20260507101529 46 301 0.0 0.0 0.00 0.24 0.02 90 1007.2
20260507100531 46 301 0.0 2.0 0.00 0.24 0.02 90 1007.1
20260507095528 47 301 0.0 1.0 0.00 0.24 0.02 90 1007.1
20260507094528 47 301 1.0 2.0 0.00 0.24 0.02 90 1007.1
20260507093525 47 301 0.0 0.0 0.00 0.24 0.02 90 1007.4
20260507092525 47 134 0.0 1.0 0.00 0.24 0.02 90 1007.5
20260507091523 47 301 0.0 2.0 0.00 0.24 0.02 90 1007.5
20260507091347 47 301 0.0 2.0 0.00 0.24 0.02 90 1007.3
20260507090536 47 301 0.0 1.0 0.00 0.24 0.02 90 1007.5
20260507084509 47 301 0.0 0.0 0.00 0.24 0.02 90 1007.6
20260507083511 48 301 0.0 0.0 0.01 0.24 0.02 90 1007.6
20260507082510 48 301 0.0 1.0 0.01 0.24 0.02 90 1007.2
20260507081510 48 301 0.0 0.0 0.01 0.24 0.02 91 1007.1
20260507080510 49 133 0.0 1.0 0.01 0.24 0.02 91 1007.1
20260507075500 49 301 0.0 3.0 0.01 0.24 0.02 91 1007.1
20260507074501 49 119 0.0 1.0 0.01 0.24 0.02 91 1007.5
20260507073943 49 301 0.0 0.0 0.00 0.23 0.01 91 1007.5
20260507072457 50 301 0.0 0.0 0.00 0.23 0.01 91 1006.6
20260507071934 50 301 0.0 0.0 0.00 0.23 0.01 91 1006.6
20260507070455 50 301 0.0 1.0 0.00 0.23 0.01 91 1006.6
20260507065456 51 301 0.0 0.0 0.00 0.23 0.01 91 1006.4
20260507064456 51 117 0.0 2.0 0.00 0.23 0.01 91 1006.5
20260507063455 51 117 0.0 2.0 0.00 0.23 0.01 91 1006.5
20260507062455 51 112 0.0 0.0 0.00 0.23 0.01 91 1006.5
20260507061456 51 112 0.0 0.0 0.00 0.23 0.01 91 1006.5
20260507060446 52 112 0.0 0.0 0.00 0.23 0.01 91 1006.5
20260507055445 52 112 0.0 0.0 0.00 0.23 0.01 92 1006.5
20260507054446 52 112 0.0 0.0 0.00 0.23 0.01 91 1007.1
20260507053929 53 112 0.0 0.0 0.00 0.23 0.01 92 1007.1
20260507052446 53 112 0.0 0.0 0.00 0.23 0.01 92 1006.6
20260507051446 53 112 0.0 0.0 0.01 0.23 0.01 92 1007.1
20260507050912 54 112 0.0 1.0 0.01 0.23 0.01 92 1007.1
20260507045435 54 112 0.0 3.0 0.01 0.23 0.01 92 1006.6
20260507044435 54 301 0.0 0.0 0.02 0.23 0.01 92 1006.6
20260507043435 55 301 0.0 0.0 0.03 0.23 0.01 92 1006.6
20260507042436 55 301 0.0 0.0 0.03 0.23 0.01 92 1006.6
20260507041436 55 301 0.0 0.0 0.02 0.22 0.00 92 1006.7
20260507040434 56 301 0.0 0.0 0.02 0.22 0.00 92 1006.7
20260507035430 56 296 0.0 0.0 0.02 0.22 0.22 93 1006.5
20260507034430 56 301 1.0 3.0 0.01 0.21 0.21 93 1006.2
20260507033432 57 271 0.0 0.0 0.00 0.20 0.20 93 1006.2
20260507032431 57 270 0.0 2.0 0.01 0.20 0.20 93 1006.0
20260507031431 57 270 1.0 4.0 0.01 0.20 0.20 93 1005.5
20260507030429 58 301 1.0 6.0 0.01 0.20 0.20 93 1005.5
20260507025429 58 301 0.0 5.0 0.01 0.20 0.20 93 1005.5
20260507024429 58 301 0.0 0.0 0.01 0.20 0.20 93 1005.5
20260507023428 58 198 2.0 5.0 0.01 0.20 0.20 93 1005.5
20260507022430 58 184 1.0 3.0 0.00 0.19 0.19 93 1005.5
20260507021426 58 183 0.0 3.0 0.00 0.19 0.19 93 1005.1
20260507020903 58 197 1.0 4.0 0.00 0.19 0.19 93 1005.1
20260507015426 58 203 0.0 3.0 0.00 0.19 0.19 93 1005.4
20260507014904 58 202 1.0 4.0 0.00 0.19 0.19 93 1005.3
20260507013426 58 204 1.0 4.0 0.00 0.19 0.19 93 1005.3
20260507012428 58 195 2.0 6.0 0.00 0.19 0.19 93 1005.3
20260507011844 58 217 3.0 8.0 0.00 0.19 0.19 93 1005.4
20260507011452 58 185 3.0 7.0 0.00 0.19 0.19 93 1005.4
20260507005415 58 189 3.0 7.0 0.00 0.19 0.19 93 1005.5